Regional Weather Roundup
Issued by NWS

Home | Current Version | Previous Version | Graphics & Text | Print | Product List | Glossary On
Versions: 1 2 3 4 5 6 7 8 9 10 11 12 13 14 15 16 17 18 19 20 21 22 23 24 25 26 27
000
ASUS45 KCYS 160510
RWRWY

WYOMING REGIONAL WEATHER ROUNDUP
NATIONAL WEATHER SERVICE CHEYENNE WY
1000 PM MST MON JAN 15 2018

NOTE:  "FAIR" INDICATES FEW OR NO CLOUDS BELOW 12,000 FEET
WITH NO SIGNIFICANT WEATHER AND/OR OBSTRUCTIONS TO VISIBILITY.

WYZ001-160600-
YELLOWSTONE NATIONAL PARK

CITY           SKY/WX    TMP DP  RH WIND       PRES   REMARKS
LK YELLOWSTONE   N/A      0  -3  87 CALM      30.40R
W YELLOWSTONE  NOT AVBL

$$
WYZ002>013-054>058-071-098>099-160600-
NORTHERN WYOMING

CITY           SKY/WX    TMP DP  RH WIND       PRES   REMARKS
JACKSON          N/A      9   6  88 N7        30.42R WCI  -2
CODY           NOT AVBL
GREYBULL       FAIR       1  -2  87 E6        30.56R WCI -10
WORLAND        FAIR      -3  -5  90 SE5       30.53S WCI -13
SHERIDAN       FAIR     -13 -17  82 CALM      30.54F
BUFFALO        FAIR       3  -8  60 SW5       30.47F WCI  -6
GILLETTE       FAIR     -12 -18  74 CALM      30.55S
HULETT         FAIR     -13 -17  84 MISG      30.58S
NEWCASTLE      FAIR      -9 -18  64 CALM      30.60S

$$
WYZ014>020-022>026-101>103-160600-
CENTRAL WYOMING

CITY           SKY/WX    TMP DP  RH WIND       PRES   REMARKS
BIG PINEY      CLOUDY    26  18  71 SW3       30.41S
PINEDALE       CLOUDY    25  18  74 CALM      30.42S
DUBOIS         CLOUDY    18  14  86 CALM      30.40R
LANDER         CLOUDY    22  17  81 SE5       30.46R WCI  16
RIVERTON       CLOUDY    19   9  65 S5        30.47R WCI  12
CASPER         FAIR       1  -5  75 CALM      30.49S
DOUGLAS        FAIR      -2  -9  72 SE3       30.54S

$$
WYZ021-027>030-104>119-160600-
SOUTHERN WYOMING

CITY           SKY/WX    TMP DP  RH WIND       PRES   REMARKS
EVANSTON       FAIR      23  17  78 E13       30.36R WCI  11
FORT BRIDGER   MOCLDY    21  16  79 E8        30.42R WCI  12
ROCK SPRINGS   FAIR      14   5  67 CALM      30.43R
DIXON            N/A     13   1  60 NE5       30.46S WCI   5
RAWLINS        FAIR       3  -3  76 CALM      30.44R
SARATOGA       FAIR       3  -4  72 SE5       30.43R WCI  -6
LARAMIE        FAIR       1  -8  66 S5        30.39R WCI  -9
CHEYENNE       FAIR       1  -4  79 NW3       30.45S
TORRINGTON     FAIR       0  -5  79 E6        30.59R WCI -12

$$




USA.gov is the U.S. government's official web portal to all federal, state and local government web resources and services.